Year,Month,Day,Hour,Minute,Value (Times are PST for temperature in C)
2019,05,23,00,00,11.60
2019,05,23,00,01,11.60
2019,05,23,00,02,11.60
2019,05,23,00,03,11.60
2019,05,23,00,04,11.60
2019,05,23,00,05,11.60
2019,05,23,00,06,11.60
2019,05,23,00,07,11.60
2019,05,23,00,08,11.60
2019,05,23,00,09,11.60
2019,05,23,00,10,11.60
2019,05,23,00,11,11.60
2019,05,23,00,12,11.60
2019,05,23,00,13,11.60
2019,05,23,00,14,11.60
2019,05,23,00,15,11.70
2019,05,23,00,16,11.70
2019,05,23,00,17,11.70
2019,05,23,00,18,11.70
2019,05,23,00,19,11.70
2019,05,23,00,20,11.70
2019,05,23,00,21,11.70
2019,05,23,00,22,11.70
2019,05,23,00,23,11.70
2019,05,23,00,24,11.60
2019,05,23,00,25,11.60
2019,05,23,00,26,11.60
2019,05,23,00,27,11.70
2019,05,23,00,28,11.70
2019,05,23,00,29,11.70
2019,05,23,00,30,11.70
2019,05,23,00,31,11.70
2019,05,23,00,32,11.70
2019,05,23,00,33,11.70
2019,05,23,00,34,11.70
2019,05,23,00,35,11.70
2019,05,23,00,36,11.70
2019,05,23,00,37,11.70
2019,05,23,00,38,11.60
2019,05,23,00,39,11.60
2019,05,23,00,40,11.60
2019,05,23,00,41,11.60
2019,05,23,00,42,11.60
2019,05,23,00,43,11.60
2019,05,23,00,44,11.50
2019,05,23,00,45,11.50
2019,05,23,00,46,11.40
2019,05,23,00,47,11.40
2019,05,23,00,48,11.40
2019,05,23,00,49,11.40
2019,05,23,00,50,11.30
2019,05,23,00,51,11.30
2019,05,23,00,52,11.30
2019,05,23,00,53,11.30
2019,05,23,00,54,11.30
2019,05,23,00,55,11.30
2019,05,23,00,56,11.30
2019,05,23,00,57,11.30
2019,05,23,00,58,11.20
2019,05,23,00,59,11.20
2019,05,23,01,00,11.20
2019,05,23,01,01,11.20
2019,05,23,01,02,11.20
2019,05,23,01,03,11.10
2019,05,23,01,04,11.10
2019,05,23,01,05,11.10
2019,05,23,01,06,11.10
2019,05,23,01,07,11.00
2019,05,23,01,08,11.00
2019,05,23,01,09,11.00
2019,05,23,01,10,11.00
2019,05,23,01,11,10.90
2019,05,23,01,12,10.90
2019,05,23,01,13,10.90
2019,05,23,01,14,10.90
2019,05,23,01,15,10.90
2019,05,23,01,16,10.90
2019,05,23,01,17,10.90
2019,05,23,01,18,10.80
2019,05,23,01,19,10.80
2019,05,23,01,20,10.80
2019,05,23,01,21,10.80
2019,05,23,01,22,10.80
2019,05,23,01,23,10.80
2019,05,23,01,24,10.80
2019,05,23,01,25,10.80
2019,05,23,01,26,10.80
2019,05,23,01,27,10.80
2019,05,23,01,28,10.80
2019,05,23,01,29,10.80
2019,05,23,01,30,10.70
2019,05,23,01,31,10.70
2019,05,23,01,32,10.70
2019,05,23,01,33,10.70
2019,05,23,01,34,10.70
2019,05,23,01,35,10.70
2019,05,23,01,36,10.70
2019,05,23,01,37,10.70
2019,05,23,01,38,10.70
2019,05,23,01,39,10.70
2019,05,23,01,40,10.70
2019,05,23,01,41,10.70
2019,05,23,01,42,10.70
2019,05,23,01,43,10.70
2019,05,23,01,44,10.70
2019,05,23,01,45,10.60
2019,05,23,01,46,10.60
2019,05,23,01,47,10.60
2019,05,23,01,48,10.60
2019,05,23,01,49,10.60
2019,05,23,01,50,10.60
2019,05,23,01,51,10.50
2019,05,23,01,52,10.50
2019,05,23,01,53,10.50
2019,05,23,01,54,10.40
2019,05,23,01,55,10.40
2019,05,23,01,56,10.40
2019,05,23,01,57,10.40
2019,05,23,01,58,10.30
2019,05,23,01,59,10.30
2019,05,23,02,00,10.30
2019,05,23,02,01,10.30
2019,05,23,02,02,10.30
2019,05,23,02,03,10.30
2019,05,23,02,04,10.30
2019,05,23,02,05,10.30
2019,05,23,02,06,10.30
2019,05,23,02,07,10.30
2019,05,23,02,08,10.30
2019,05,23,02,09,10.30
2019,05,23,02,10,10.30
2019,05,23,02,11,10.30
2019,05,23,02,12,10.30
2019,05,23,02,13,10.30
2019,05,23,02,14,10.20
2019,05,23,02,15,10.20
2019,05,23,02,16,10.20
2019,05,23,02,17,10.20
2019,05,23,02,18,10.20
2019,05,23,02,19,10.10
2019,05,23,02,20,10.10
2019,05,23,02,21,10.10
2019,05,23,02,22,10.10
2019,05,23,02,23,10.10
2019,05,23,02,24,10.10
2019,05,23,02,25,10.10
2019,05,23,02,26,10.00
2019,05,23,02,27,10.00
2019,05,23,02,28,10.00
2019,05,23,02,29,10.00
2019,05,23,02,30,9.90
2019,05,23,02,31,9.90
2019,05,23,02,32,9.90
2019,05,23,02,33,9.90
2019,05,23,02,34,9.90
2019,05,23,02,35,9.90
2019,05,23,02,36,9.90
2019,05,23,02,37,9.80
2019,05,23,02,38,9.80
2019,05,23,02,39,9.80
2019,05,23,02,40,9.80
2019,05,23,02,41,9.80
2019,05,23,02,42,9.80
2019,05,23,02,43,9.80
2019,05,23,02,44,9.80
2019,05,23,02,45,9.80
2019,05,23,02,46,9.70
2019,05,23,02,47,9.80
2019,05,23,02,48,9.70
2019,05,23,02,49,9.80
2019,05,23,02,50,9.70
2019,05,23,02,51,9.70
2019,05,23,02,52,9.70
2019,05,23,02,53,9.70
2019,05,23,02,54,9.70
2019,05,23,02,55,9.70
2019,05,23,02,56,9.70
2019,05,23,02,57,9.70
2019,05,23,02,58,9.70
2019,05,23,02,59,9.70
2019,05,23,03,00,9.70
2019,05,23,03,01,9.70
2019,05,23,03,02,9.70
2019,05,23,03,03,9.70
2019,05,23,03,04,9.70
2019,05,23,03,05,9.70
2019,05,23,03,06,9.80
2019,05,23,03,07,9.80
2019,05,23,03,08,9.80
2019,05,23,03,09,9.80
2019,05,23,03,10,9.80
2019,05,23,03,11,9.80
2019,05,23,03,12,9.80
2019,05,23,03,13,9.80
2019,05,23,03,14,9.80
2019,05,23,03,15,9.80
2019,05,23,03,16,9.80
2019,05,23,03,17,9.80
2019,05,23,03,18,9.80
2019,05,23,03,19,9.70
2019,05,23,03,20,9.70
2019,05,23,03,21,9.70
2019,05,23,03,22,9.70
2019,05,23,03,23,9.70
2019,05,23,03,24,9.70
2019,05,23,03,25,9.60
2019,05,23,03,26,9.60
2019,05,23,03,27,9.60
2019,05,23,03,28,9.60
2019,05,23,03,29,9.60
2019,05,23,03,30,9.60
2019,05,23,03,31,9.60
2019,05,23,03,32,9.60
2019,05,23,03,33,9.60
2019,05,23,03,34,9.60
2019,05,23,03,35,9.60
2019,05,23,03,36,9.70
2019,05,23,03,37,9.60
2019,05,23,03,38,9.60
2019,05,23,03,39,9.60
2019,05,23,03,40,9.60
2019,05,23,03,41,9.60
2019,05,23,03,42,9.60
2019,05,23,03,43,9.60
2019,05,23,03,44,9.60
2019,05,23,03,45,9.60
2019,05,23,03,46,9.60
2019,05,23,03,47,9.60
2019,05,23,03,48,9.60
2019,05,23,03,49,9.60
2019,05,23,03,50,9.60
2019,05,23,03,51,9.60
2019,05,23,03,52,9.60
2019,05,23,03,53,9.60
2019,05,23,03,54,9.60
2019,05,23,03,55,9.60
2019,05,23,03,56,9.60
2019,05,23,03,57,9.60
2019,05,23,03,58,9.60
2019,05,23,03,59,9.60
2019,05,23,04,00,9.60
2019,05,23,04,01,9.60
2019,05,23,04,02,9.60
2019,05,23,04,03,9.70
2019,05,23,04,04,9.70
2019,05,23,04,05,9.70
2019,05,23,04,06,9.70
2019,05,23,04,07,9.70
2019,05,23,04,08,9.70
2019,05,23,04,09,9.70
2019,05,23,04,10,9.80
2019,05,23,04,11,9.80
2019,05,23,04,12,9.80
2019,05,23,04,13,9.80
2019,05,23,04,14,9.80
2019,05,23,04,15,9.80
2019,05,23,04,16,9.80
2019,05,23,04,17,9.80
2019,05,23,04,18,9.90
2019,05,23,04,19,9.90
2019,05,23,04,20,9.90
2019,05,23,04,21,9.90
2019,05,23,04,22,9.90
2019,05,23,04,23,10.00
2019,05,23,04,24,10.00
2019,05,23,04,25,10.00
2019,05,23,04,26,10.10
2019,05,23,04,27,10.10
2019,05,23,04,28,10.10
2019,05,23,04,29,10.10
2019,05,23,04,30,10.10
2019,05,23,04,31,10.20
2019,05,23,04,32,10.20
2019,05,23,04,33,10.20
2019,05,23,04,34,10.20
2019,05,23,04,35,10.30
2019,05,23,04,36,10.30
2019,05,23,04,37,10.30
2019,05,23,04,38,10.30
2019,05,23,04,39,10.30
2019,05,23,04,40,10.30
2019,05,23,04,41,10.30
2019,05,23,04,42,10.40
2019,05,23,04,43,10.40
2019,05,23,04,44,10.40
2019,05,23,04,45,10.40
2019,05,23,04,46,10.50
2019,05,23,04,47,10.50
2019,05,23,04,48,10.50
2019,05,23,04,49,10.60
2019,05,23,04,50,10.60
2019,05,23,04,51,10.60
2019,05,23,04,52,10.60
2019,05,23,04,53,10.60
2019,05,23,04,54,10.60
2019,05,23,04,55,10.60
2019,05,23,04,56,10.60
2019,05,23,04,57,10.60
2019,05,23,04,58,10.60
2019,05,23,04,59,10.70
2019,05,23,05,00,10.70
2019,05,23,05,01,10.60
2019,05,23,05,02,10.60
2019,05,23,05,03,10.60
2019,05,23,05,04,10.60
2019,05,23,05,05,10.60
2019,05,23,05,06,10.60
2019,05,23,05,07,10.70
2019,05,23,05,08,10.70
2019,05,23,05,09,10.70
2019,05,23,05,10,10.70
2019,05,23,05,11,10.70
2019,05,23,05,12,10.70
2019,05,23,05,13,10.70
2019,05,23,05,14,10.70
2019,05,23,05,15,10.70
2019,05,23,05,16,10.70
2019,05,23,05,17,10.70
2019,05,23,05,18,10.60
2019,05,23,05,19,10.60
2019,05,23,05,20,10.60
2019,05,23,05,21,10.60
2019,05,23,05,22,10.60
2019,05,23,05,23,10.50
2019,05,23,05,24,10.50
2019,05,23,05,25,10.50
2019,05,23,05,26,10.50
2019,05,23,05,27,10.40
2019,05,23,05,28,10.40
2019,05,23,05,29,10.40
2019,05,23,05,30,10.40
2019,05,23,05,31,10.40
2019,05,23,05,32,10.40
2019,05,23,05,33,10.40
2019,05,23,05,34,10.40
2019,05,23,05,35,10.40
2019,05,23,05,36,10.30
2019,05,23,05,37,10.30
2019,05,23,05,38,10.30
2019,05,23,05,39,10.30
2019,05,23,05,40,10.20
2019,05,23,05,41,10.20
2019,05,23,05,42,10.20
2019,05,23,05,43,10.20
2019,05,23,05,44,10.10
2019,05,23,05,45,10.10
2019,05,23,05,46,10.10
2019,05,23,05,47,10.10
2019,05,23,05,48,10.10
2019,05,23,05,49,10.00
2019,05,23,05,50,10.00
2019,05,23,05,51,10.00
2019,05,23,05,52,10.00
2019,05,23,05,53,9.90
2019,05,23,05,54,9.90
2019,05,23,05,55,9.90
2019,05,23,05,56,9.90
2019,05,23,05,57,9.90
2019,05,23,05,58,9.90
2019,05,23,05,59,9.90
2019,05,23,06,00,9.90
2019,05,23,06,01,9.90
2019,05,23,06,02,9.90
2019,05,23,06,03,9.90
2019,05,23,06,04,9.90
2019,05,23,06,05,9.90
2019,05,23,06,06,9.90
2019,05,23,06,07,9.90
2019,05,23,06,08,9.90
2019,05,23,06,09,10.00
2019,05,23,06,10,10.00
2019,05,23,06,11,10.00
2019,05,23,06,12,10.00
2019,05,23,06,13,10.00
2019,05,23,06,14,10.00
2019,05,23,06,15,10.10
2019,05,23,06,16,10.10
2019,05,23,06,17,10.10
2019,05,23,06,18,10.10
2019,05,23,06,19,10.10
2019,05,23,06,20,10.10
2019,05,23,06,21,10.10
2019,05,23,06,22,10.20
2019,05,23,06,23,10.20
2019,05,23,06,24,10.20
2019,05,23,06,25,10.20
2019,05,23,06,26,10.20
2019,05,23,06,27,10.20
2019,05,23,06,28,10.20
2019,05,23,06,29,10.20
2019,05,23,06,30,10.20
2019,05,23,06,31,10.20
2019,05,23,06,32,10.20
2019,05,23,06,33,10.20
2019,05,23,06,34,10.20
2019,05,23,06,35,10.30
2019,05,23,06,36,10.30
2019,05,23,06,37,10.30
2019,05,23,06,38,10.30
2019,05,23,06,39,10.40
2019,05,23,06,40,10.40
2019,05,23,06,41,10.40
2019,05,23,06,42,10.50
2019,05,23,06,43,10.60
2019,05,23,06,44,10.60
2019,05,23,06,45,10.70
2019,05,23,06,46,10.80
2019,05,23,06,47,10.90
2019,05,23,06,48,10.90
2019,05,23,06,49,11.10
2019,05,23,06,50,11.20
2019,05,23,06,51,11.40
2019,05,23,06,52,11.50
2019,05,23,06,53,11.60
2019,05,23,06,54,11.80
2019,05,23,06,55,11.80
2019,05,23,06,56,12.00
2019,05,23,06,57,12.10
2019,05,23,06,58,12.20
2019,05,23,06,59,12.30
2019,05,23,07,00,12.50
2019,05,23,07,01,12.60
2019,05,23,07,02,12.70
2019,05,23,07,03,12.80
2019,05,23,07,04,12.90
2019,05,23,07,05,13.00
2019,05,23,07,06,13.10
2019,05,23,07,07,13.20
2019,05,23,07,08,13.30
2019,05,23,07,09,13.40
2019,05,23,07,10,13.60
2019,05,23,07,11,13.60
2019,05,23,07,12,13.80
2019,05,23,07,13,13.80
2019,05,23,07,14,14.00
2019,05,23,07,15,14.00
2019,05,23,07,16,14.20
2019,05,23,07,17,14.30
2019,05,23,07,18,14.40
2019,05,23,07,19,14.50
2019,05,23,07,20,14.60
2019,05,23,07,21,14.70
2019,05,23,07,22,14.80
2019,05,23,07,23,14.90
2019,05,23,07,24,15.10
2019,05,23,07,25,15.20
2019,05,23,07,26,15.30
2019,05,23,07,27,15.30
2019,05,23,07,28,15.40
2019,05,23,07,29,15.40
2019,05,23,07,30,15.50
2019,05,23,07,31,15.60
2019,05,23,07,32,15.70
2019,05,23,07,33,15.70
2019,05,23,07,34,15.80
2019,05,23,07,35,15.80
2019,05,23,07,36,15.90
2019,05,23,07,37,15.90
2019,05,23,07,38,16.00
2019,05,23,07,39,16.00
2019,05,23,07,40,16.10
2019,05,23,07,41,16.10
2019,05,23,07,42,16.20
2019,05,23,07,43,16.20
2019,05,23,07,44,16.30
2019,05,23,07,45,16.30
2019,05,23,07,46,16.40
2019,05,23,07,47,16.40
2019,05,23,07,48,16.50
2019,05,23,07,49,16.50
2019,05,23,07,50,16.60
2019,05,23,07,51,16.60
2019,05,23,07,52,16.60
2019,05,23,07,53,16.60
2019,05,23,07,54,16.70
2019,05,23,07,55,16.70
2019,05,23,07,56,16.70
2019,05,23,07,57,16.70
2019,05,23,07,58,16.70
2019,05,23,07,59,16.70
2019,05,23,08,00,16.70
2019,05,23,08,01,16.80
2019,05,23,08,02,16.80
2019,05,23,08,03,16.80
2019,05,23,08,04,16.90
2019,05,23,08,05,17.00
2019,05,23,08,06,17.00
2019,05,23,08,07,17.10
2019,05,23,08,08,17.20
2019,05,23,08,09,17.20
2019,05,23,08,10,17.30
2019,05,23,08,11,17.30
2019,05,23,08,12,17.30
2019,05,23,08,13,17.40
2019,05,23,08,14,17.40
2019,05,23,08,15,17.40
2019,05,23,08,16,17.40
2019,05,23,08,17,17.40
2019,05,23,08,18,17.50
2019,05,23,08,19,17.50
2019,05,23,08,20,17.50
2019,05,23,08,21,17.60
2019,05,23,08,22,17.70
2019,05,23,08,23,17.70
2019,05,23,08,24,17.70
2019,05,23,08,25,17.80
2019,05,23,08,26,17.80
2019,05,23,08,27,17.80
2019,05,23,08,28,17.80
2019,05,23,08,29,17.90
2019,05,23,08,30,17.90
2019,05,23,08,31,17.90
2019,05,23,08,32,17.80
2019,05,23,08,33,17.80
2019,05,23,08,34,17.90
2019,05,23,08,35,17.90
2019,05,23,08,36,17.90
2019,05,23,08,37,17.90
2019,05,23,08,38,17.90
2019,05,23,08,39,18.00
2019,05,23,08,40,18.00
2019,05,23,08,41,18.00
2019,05,23,08,42,18.00
2019,05,23,08,43,18.00
2019,05,23,08,44,18.00
2019,05,23,08,45,18.00
2019,05,23,08,46,18.00
2019,05,23,08,47,18.10
2019,05,23,08,48,18.10
2019,05,23,08,49,18.20
2019,05,23,08,50,18.30
2019,05,23,08,51,18.30
2019,05,23,08,52,18.40
2019,05,23,08,53,18.40
2019,05,23,08,54,18.50
2019,05,23,08,55,18.50
2019,05,23,08,56,18.50
2019,05,23,08,57,18.60
2019,05,23,08,58,18.60
2019,05,23,08,59,18.60
2019,05,23,09,00,18.60
2019,05,23,09,01,18.60
2019,05,23,09,02,18.70
2019,05,23,09,03,18.60
2019,05,23,09,04,18.60
2019,05,23,09,05,18.60
2019,05,23,09,06,18.60
2019,05,23,09,07,18.60
2019,05,23,09,08,18.60
2019,05,23,09,09,18.60
2019,05,23,09,10,18.60
2019,05,23,09,11,18.50
2019,05,23,09,12,18.50
2019,05,23,09,13,18.40
2019,05,23,09,14,18.30
2019,05,23,09,15,18.30
2019,05,23,09,16,18.30
2019,05,23,09,17,18.20
2019,05,23,09,18,18.20
2019,05,23,09,19,18.20
2019,05,23,09,20,18.20
2019,05,23,09,21,18.20
2019,05,23,09,22,18.30
2019,05,23,09,23,18.40
2019,05,23,09,24,18.40
2019,05,23,09,25,18.50
2019,05,23,09,26,18.50
2019,05,23,09,27,18.60
2019,05,23,09,28,18.70
2019,05,23,09,29,18.70
2019,05,23,09,30,18.70
2019,05,23,09,31,18.70
2019,05,23,09,32,18.70
2019,05,23,09,33,18.70
2019,05,23,09,34,18.70
2019,05,23,09,35,18.80
2019,05,23,09,36,18.80
2019,05,23,09,37,18.90
2019,05,23,09,38,19.00
2019,05,23,09,39,19.00
2019,05,23,09,40,19.10
2019,05,23,09,41,19.10
2019,05,23,09,42,19.10
2019,05,23,09,43,19.20
2019,05,23,09,44,19.20
2019,05,23,09,45,19.20
2019,05,23,09,46,19.30
2019,05,23,09,47,19.30
2019,05,23,09,48,19.30
2019,05,23,09,49,19.30
2019,05,23,09,50,19.30
2019,05,23,09,51,19.30
2019,05,23,09,52,19.30
2019,05,23,09,53,19.30
2019,05,23,09,54,19.40
2019,05,23,09,55,19.40
2019,05,23,09,56,19.40
2019,05,23,09,57,19.40
2019,05,23,09,58,19.50
2019,05,23,09,59,19.50
2019,05,23,10,00,19.60
2019,05,23,10,01,19.60
2019,05,23,10,02,19.70
2019,05,23,10,03,19.70
2019,05,23,10,04,19.70
2019,05,23,10,05,19.70
2019,05,23,10,06,19.70
2019,05,23,10,07,19.70
2019,05,23,10,08,19.70
2019,05,23,10,09,19.70
2019,05,23,10,10,19.70
2019,05,23,10,11,19.70
2019,05,23,10,12,19.70
2019,05,23,10,13,19.70
2019,05,23,10,14,19.60
2019,05,23,10,15,19.60
2019,05,23,10,16,19.60
2019,05,23,10,17,19.50
2019,05,23,10,18,19.50
2019,05,23,10,19,19.50
2019,05,23,10,20,19.50
2019,05,23,10,21,19.50
2019,05,23,10,22,19.50
2019,05,23,10,23,19.50
2019,05,23,10,24,19.50
2019,05,23,10,25,19.60
2019,05,23,10,26,19.60
2019,05,23,10,27,19.60
2019,05,23,10,28,19.50
2019,05,23,10,29,19.50
2019,05,23,10,30,19.60
2019,05,23,10,31,19.60
2019,05,23,10,32,19.60
2019,05,23,10,33,19.60
2019,05,23,10,34,19.60
2019,05,23,10,35,19.60
2019,05,23,10,36,19.70
2019,05,23,10,37,19.70
2019,05,23,10,38,19.70
2019,05,23,10,39,19.70
2019,05,23,10,40,19.70
2019,05,23,10,41,19.70
2019,05,23,10,42,19.80
2019,05,23,10,43,19.80
2019,05,23,10,44,19.90
2019,05,23,10,45,19.90
2019,05,23,10,46,19.90
2019,05,23,10,47,20.00
2019,05,23,10,48,20.00
2019,05,23,10,49,20.00
2019,05,23,10,50,20.00
2019,05,23,10,51,20.00
2019,05,23,10,52,20.00
2019,05,23,10,53,20.00
2019,05,23,10,54,20.00
2019,05,23,10,55,20.00
2019,05,23,10,56,20.00
2019,05,23,10,57,20.10
2019,05,23,10,58,20.10
2019,05,23,10,59,20.10
2019,05,23,11,00,20.10
2019,05,23,11,01,20.10
2019,05,23,11,02,20.20
2019,05,23,11,03,20.20
2019,05,23,11,04,20.20
2019,05,23,11,05,20.30
2019,05,23,11,06,20.30
2019,05,23,11,07,20.30
2019,05,23,11,08,20.30
2019,05,23,11,09,20.30
2019,05,23,11,10,20.30
2019,05,23,11,11,20.40
2019,05,23,11,12,20.40
2019,05,23,11,13,20.40
2019,05,23,11,14,20.40
2019,05,23,11,15,20.40
2019,05,23,11,16,20.40
2019,05,23,11,17,20.40
2019,05,23,11,18,20.40
2019,05,23,11,19,20.50
2019,05,23,11,20,20.50
2019,05,23,11,21,20.60
2019,05,23,11,22,20.60
2019,05,23,11,23,20.60
2019,05,23,11,24,20.50
2019,05,23,11,25,20.50
2019,05,23,11,26,20.50
2019,05,23,11,27,20.50
2019,05,23,11,28,20.60
2019,05,23,11,29,20.60
2019,05,23,11,30,20.60
2019,05,23,11,31,20.60
2019,05,23,11,32,20.70
2019,05,23,11,33,20.70
2019,05,23,11,34,20.70
2019,05,23,11,35,20.60
2019,05,23,11,36,20.50
2019,05,23,11,37,20.40
2019,05,23,11,38,20.20
2019,05,23,11,39,20.20
2019,05,23,11,40,20.10
2019,05,23,11,41,20.10
2019,05,23,11,42,20.10
2019,05,23,11,43,20.10
2019,05,23,11,44,20.20
2019,05,23,11,45,20.30
2019,05,23,11,46,20.30
2019,05,23,11,47,20.30
2019,05,23,11,48,20.30
2019,05,23,11,49,20.30
2019,05,23,11,50,20.30
2019,05,23,11,51,20.30
2019,05,23,11,52,20.30
2019,05,23,11,53,20.30
2019,05,23,11,54,20.20
2019,05,23,11,55,20.20
2019,05,23,11,56,20.20
2019,05,23,11,57,20.20
2019,05,23,11,58,20.20
2019,05,23,11,59,20.20
2019,05,23,12,00,20.20
2019,05,23,12,01,20.30
2019,05,23,12,02,20.30
2019,05,23,12,03,20.40
2019,05,23,12,04,20.50
2019,05,23,12,05,20.50
2019,05,23,12,06,20.60
2019,05,23,12,07,20.60
2019,05,23,12,08,20.60
2019,05,23,12,09,20.60
2019,05,23,12,10,20.60
2019,05,23,12,11,20.60
2019,05,23,12,12,20.60
2019,05,23,12,13,20.60
2019,05,23,12,14,20.60
2019,05,23,12,15,20.60
2019,05,23,12,16,20.60
2019,05,23,12,17,20.60
2019,05,23,12,18,20.60
2019,05,23,12,19,20.70
2019,05,23,12,20,20.70
2019,05,23,12,21,20.70
2019,05,23,12,22,20.70
2019,05,23,12,23,20.70
2019,05,23,12,24,20.70
2019,05,23,12,25,20.70
2019,05,23,12,26,20.80
2019,05,23,12,27,20.80
2019,05,23,12,28,20.90
2019,05,23,12,29,21.00
2019,05,23,12,30,21.00
2019,05,23,12,31,21.10
2019,05,23,12,32,21.10
2019,05,23,12,33,21.10
2019,05,23,12,34,21.10
2019,05,23,12,35,21.10
2019,05,23,12,36,21.20
2019,05,23,12,37,21.20
2019,05,23,12,38,21.20
2019,05,23,12,39,21.20
2019,05,23,12,40,21.20
2019,05,23,12,41,21.20
2019,05,23,12,42,21.20
2019,05,23,12,43,21.20
2019,05,23,12,44,21.20
2019,05,23,12,45,21.20
2019,05,23,12,46,21.20
2019,05,23,12,47,21.20
2019,05,23,12,48,21.20
2019,05,23,12,49,21.30
2019,05,23,12,50,21.30
2019,05,23,12,51,21.30
2019,05,23,12,52,21.40
2019,05,23,12,53,21.40
2019,05,23,12,54,21.40
2019,05,23,12,55,21.50
2019,05,23,12,56,21.60
2019,05,23,12,57,21.60
2019,05,23,12,58,21.60
2019,05,23,12,59,21.60
2019,05,23,13,00,21.60
2019,05,23,13,01,21.60
2019,05,23,13,02,21.60
2019,05,23,13,03,21.60
2019,05,23,13,04,21.60
2019,05,23,13,05,21.60
2019,05,23,13,06,21.60
2019,05,23,13,07,21.60
2019,05,23,13,08,21.60
2019,05,23,13,09,21.60
2019,05,23,13,10,21.60
2019,05,23,13,11,21.60
2019,05,23,13,12,21.60
2019,05,23,13,13,21.60
2019,05,23,13,14,21.60
2019,05,23,13,15,21.60
2019,05,23,13,16,21.60
2019,05,23,13,17,21.70
2019,05,23,13,18,21.70
2019,05,23,13,19,21.70
2019,05,23,13,20,21.80
2019,05,23,13,21,21.80
2019,05,23,13,22,21.90
2019,05,23,13,23,21.90
2019,05,23,13,24,21.90
2019,05,23,13,25,22.00
2019,05,23,13,26,22.00
2019,05,23,13,27,22.00
2019,05,23,13,28,22.10
2019,05,23,13,29,22.10
2019,05,23,13,30,22.10
2019,05,23,13,31,22.10
2019,05,23,13,32,22.10
2019,05,23,13,33,22.10
2019,05,23,13,34,22.20
2019,05,23,13,35,22.20
2019,05,23,13,36,22.20
2019,05,23,13,37,22.10
2019,05,23,13,38,22.10
2019,05,23,13,39,22.10
2019,05,23,13,40,22.20
2019,05,23,13,41,22.10
2019,05,23,13,42,22.10
2019,05,23,13,43,22.10
2019,05,23,13,44,22.10
2019,05,23,13,45,22.10
2019,05,23,13,46,22.20
2019,05,23,13,47,22.20
2019,05,23,13,48,22.20
2019,05,23,13,49,22.20
2019,05,23,13,50,22.20
2019,05,23,13,51,22.10
2019,05,23,13,52,22.10
2019,05,23,13,53,22.10
2019,05,23,13,54,22.10
2019,05,23,13,55,22.10
2019,05,23,13,56,22.10
2019,05,23,13,57,22.00
2019,05,23,13,58,22.00
2019,05,23,13,59,21.90
2019,05,23,14,00,21.90
2019,05,23,14,01,21.90
2019,05,23,14,02,21.80
2019,05,23,14,03,21.80
2019,05,23,14,04,21.80
2019,05,23,14,05,21.80
2019,05,23,14,06,21.80
2019,05,23,14,07,21.70
2019,05,23,14,08,21.70
2019,05,23,14,09,21.70
2019,05,23,14,10,21.70
2019,05,23,14,11,21.70
2019,05,23,14,12,21.70
2019,05,23,14,13,21.70
2019,05,23,14,14,21.70
2019,05,23,14,15,21.70
2019,05,23,14,16,21.70
2019,05,23,14,17,21.70
2019,05,23,14,18,21.70
2019,05,23,14,19,21.70
2019,05,23,14,20,21.70
2019,05,23,14,21,21.70
2019,05,23,14,22,21.60
2019,05,23,14,23,21.60
2019,05,23,14,24,21.60
2019,05,23,14,25,21.60
2019,05,23,14,26,21.70
2019,05,23,14,27,21.70
2019,05,23,14,28,21.60
2019,05,23,14,29,21.60
2019,05,23,14,30,21.60
2019,05,23,14,31,21.60
2019,05,23,14,32,21.70
2019,05,23,14,33,21.70
2019,05,23,14,34,21.70
2019,05,23,14,35,21.80
2019,05,23,14,36,21.80
2019,05,23,14,37,21.80
2019,05,23,14,38,21.90
2019,05,23,14,39,21.90
2019,05,23,14,40,21.90
2019,05,23,14,41,21.90
2019,05,23,14,42,22.00
2019,05,23,14,43,22.00
2019,05,23,14,44,22.10
2019,05,23,14,45,22.10
2019,05,23,14,46,22.10
2019,05,23,14,47,22.20
2019,05,23,14,48,22.20
2019,05,23,14,49,22.20
2019,05,23,14,50,22.20
2019,05,23,14,51,22.20
2019,05,23,14,52,22.30
2019,05,23,14,53,22.30
2019,05,23,14,54,22.30
2019,05,23,14,55,22.30
2019,05,23,14,56,22.30
2019,05,23,14,57,22.30
2019,05,23,14,58,22.30
2019,05,23,14,59,22.20
2019,05,23,15,00,22.20
2019,05,23,15,01,22.20
2019,05,23,15,02,22.10
2019,05,23,15,03,22.10
2019,05,23,15,04,22.10
2019,05,23,15,05,22.10
2019,05,23,15,06,22.20
2019,05,23,15,07,22.20
2019,05,23,15,08,22.20
2019,05,23,15,09,22.20
2019,05,23,15,10,22.20
2019,05,23,15,11,22.20
2019,05,23,15,12,22.10
2019,05,23,15,13,22.00
2019,05,23,15,14,21.90
2019,05,23,15,15,21.80
2019,05,23,15,16,21.80
2019,05,23,15,17,21.70
2019,05,23,15,18,21.70
2019,05,23,15,19,21.70
2019,05,23,15,20,21.70
2019,05,23,15,21,21.70
2019,05,23,15,22,21.70
2019,05,23,15,23,21.70
2019,05,23,15,24,21.80
2019,05,23,15,25,21.80
2019,05,23,15,26,21.80
2019,05,23,15,27,21.90
2019,05,23,15,28,21.90
2019,05,23,15,29,22.00
2019,05,23,15,30,22.10
2019,05,23,15,31,22.10
2019,05,23,15,32,22.20
2019,05,23,15,33,22.20
2019,05,23,15,34,22.30
2019,05,23,15,35,22.30
2019,05,23,15,36,22.40
2019,05,23,15,37,22.40
2019,05,23,15,38,22.50
2019,05,23,15,39,22.50
2019,05,23,15,40,22.60
2019,05,23,15,41,22.60
2019,05,23,15,42,22.70
2019,05,23,15,43,22.80
2019,05,23,15,44,22.90
2019,05,23,15,45,23.00
2019,05,23,15,46,23.10
2019,05,23,15,47,23.20
2019,05,23,15,48,23.20
2019,05,23,15,49,23.30
2019,05,23,15,50,23.30
2019,05,23,15,51,23.30
2019,05,23,15,52,23.30
2019,05,23,15,53,23.30
2019,05,23,15,54,23.30
2019,05,23,15,55,23.30
2019,05,23,15,56,23.30
2019,05,23,15,57,23.30
2019,05,23,15,58,23.30
2019,05,23,15,59,23.20
2019,05,23,16,00,23.20
2019,05,23,16,01,23.20
2019,05,23,16,02,23.20
2019,05,23,16,03,23.20
2019,05,23,16,04,23.30
2019,05,23,16,05,23.40
2019,05,23,16,06,23.50
2019,05,23,16,07,23.60
2019,05,23,16,08,23.70
2019,05,23,16,09,23.80
2019,05,23,16,10,23.90
2019,05,23,16,11,23.90
2019,05,23,16,12,23.90
2019,05,23,16,13,24.00
2019,05,23,16,14,24.00
2019,05,23,16,15,24.10
2019,05,23,16,16,24.20
2019,05,23,16,17,24.20
2019,05,23,16,18,24.20
2019,05,23,16,19,24.20
2019,05,23,16,20,24.20
2019,05,23,16,21,24.20
2019,05,23,16,22,24.30
2019,05,23,16,23,24.30
2019,05,23,16,24,24.30
2019,05,23,16,25,24.40
2019,05,23,16,26,24.40
2019,05,23,16,27,24.40
2019,05,23,16,28,24.40
2019,05,23,16,29,24.40
2019,05,23,16,30,24.50
2019,05,23,16,31,24.50
2019,05,23,16,32,24.60
2019,05,23,16,33,24.70
2019,05,23,16,34,24.90
2019,05,23,16,35,25.00
2019,05,23,16,36,25.00
2019,05,23,16,37,25.10
2019,05,23,16,38,25.10
2019,05,23,16,39,25.10
2019,05,23,16,40,25.10
2019,05,23,16,41,25.20
2019,05,23,16,42,25.30
2019,05,23,16,43,25.30
2019,05,23,16,44,25.40
2019,05,23,16,45,25.50
2019,05,23,16,46,25.50
2019,05,23,16,47,25.60
2019,05,23,16,48,25.70
2019,05,23,16,49,25.70
2019,05,23,16,50,25.70
2019,05,23,16,51,25.60
2019,05,23,16,52,25.60
2019,05,23,16,53,25.60
2019,05,23,16,54,25.50
2019,05,23,16,55,25.50
2019,05,23,16,56,25.50
2019,05,23,16,57,25.60
2019,05,23,16,58,25.60
2019,05,23,16,59,25.60
2019,05,23,17,00,25.60
2019,05,23,17,01,25.60
2019,05,23,17,02,25.60
2019,05,23,17,03,25.60
2019,05,23,17,04,25.60
2019,05,23,17,05,25.60
2019,05,23,17,06,25.60
2019,05,23,17,07,25.50
2019,05,23,17,08,25.50
2019,05,23,17,09,25.40
2019,05,23,17,10,25.40
2019,05,23,17,11,25.50
2019,05,23,17,12,25.50
2019,05,23,17,13,25.60
2019,05,23,17,14,25.60
2019,05,23,17,15,25.60
2019,05,23,17,16,25.50
2019,05,23,17,17,25.50
2019,05,23,17,18,25.50
2019,05,23,17,19,25.50
2019,05,23,17,20,25.40
2019,05,23,17,21,25.40
2019,05,23,17,22,25.30
2019,05,23,17,23,25.30
2019,05,23,17,24,25.20
2019,05,23,17,25,25.10